#timestamp,LO_Frequency,Hit,StdDev 
1620632675.6,286046905.9,P
1620632695.5,286046904.5,P
1620632715.3,286046904.0,P
1620632735.1,286046904.3,Y
1620632755.9,286047001.2,P
1620632775.7,286047001.2,N
1620632795.5,286047000.8,N
1620632815.4,286047001.0,N
1620632835.2,286046998.5,N
1620632855.1,286047000.7,N
1620632856.0,286047000.7,N
1620632875.8,286047011.9,N
1620632895.6,286046997.1,N
1620632915.5,286046995.3,N
1620632935.3,286046996.4,N
1620632955.2,286046994.3,N
1620632975.9,286046992.0,N
1620632995.7,286046990.2,N
1620633015.6,286046991.3,N
1620633035.4,286046988.6,N
1620633055.2,286046991.0,N
1620633075.1,286046988.5,N
1620633076.0,286046988.5,N
1620633095.8,286046991.3,N
1620633115.7,286046989.0,N
1620633135.5,286046987.2,N
1620633155.3,286046986.0,N
1620633175.2,286046985.0,N
1620633195.0,286046980.6,N
1620633195.9,286046980.6,N
1620633215.8,286046979.5,N
1620633235.6,286046979.7,N
1620633255.4,286046979.5,N
1620633275.3,286046977.3,N
1620633295.1,286046978.0,N
1620633315.8,286046976.3,N
1620633335.7,286046974.9,N
1620633355.5,286046973.2,Y
1620633375.4,286046982.9,P
1620633395.2,286046982.9,P
1620633415.0,286046983.6,P
1620633415.9,286046983.6,Y
1620633435.8,286046999.6,P
1620633455.6,286046999.3,N
1620633475.5,286046997.5,N
1620633495.3,286046995.3,N
1620633515.1,286046996.1,N
1620633535.9,286046993.9,N
1620633555.7,286046992.1,N
1620633575.5,286046993.1,N
1620633595.4,286046992.0,N
